User: anonymous   Login
Location: Unspecified
(0.0000°N, 0.0000°E)
Time: 16:37:36
(UTC+00:00)
Language:

Explorer 26 - Orbit

View from above orbital plane
View from above orbital plane
View from above satellite
View from above satellite

Ground track
Ground track

The orbit data is extracted from the following two-line orbital elements,

1   963U 64086A   19015.31970033 +.00039499 -11411-4 +34840-3 0  9993
2   963 019.7133 040.1488 0931847 126.9521 241.9892 13.89663777120855
Epoch (UTC): 15 January 2019 07:40:22
Eccentricity: 0.0931847
inclination: 19.7133°
perigee height: 249 km
apogee height: 1611 km
right ascension of ascending node: 40.1488°
argument of perigee: 126.9521°
revolutions per day: 13.89663777
mean anomaly at epoch: 241.9892°
orbit number at epoch: 12085

The dashed part of the orbit path shows where the satellite is in the earth's shadow,  

DLR